星链-5467 (STARLINK-5467 )

导读

STARLINK-5467是美国太空探索技术公司星链星座中的一颗卫星,于2023年2月17日发射入轨,属于星链互联网卫星组网部署的一部分。星链系统旨在为全球提供高速低延迟宽带互联网服务,该卫星延续了星链批量发射组网的模式,助力完善全球卫星互联网覆盖网络。

基本信息
目录编号:
55660
目录名称:
STARLINK-5467
国际标识:
2023-021AJ
轨道中心:
EARTH
卫星名称:
星链-5467
卫星全名:
星链-5467 (STARLINK-5467 )
卫星状态:
在轨 (已飞行1303 天)
发射日期:
2023-02-17 UTC
国别 :
美国 (US)
星等 :
--
该卫星已列入 空间交会检测服务 Space Conjunction Data Service (SCDS) ,当前飞行风险评估等级: 无高风险
轨道信息
数据来源 国际轨道数据 AOE轨道数据
星历时间 2026-09-12T04:23:32+0800
16小时前
查看轨道信息
2026-09-07T02:00:00+0800
5天前
查看轨道信息
半长轴 6950.207km 6950.173km
偏心率 0.0002887 0.0002742
轨道倾角 70.000° 69.998°
近地点辐角 266.588° 265.853°
升交点赤经 54.922° 67.776°
平近点角 93.495° 314.520°
近地点 570.063km 570.13km
远地点 574.077km 573.942km
周期 96.107分钟 96.107分钟
每日圈数 14.983255 14.983366
详细信息
固有亮度:
5
最大亮度:
2.5
卫星平台:
Starlink v1.5
覆盖范围:
全球
运营商:
太空探索技术公司
运营商所在国:
美国
制造商(研发单位):
太空探索技术公司
制造商所在国:
美国
使用方式:
暂无
卫星简介
星链(Starlink)计划是由太空探索技术公司(SpaceX)提出的一个巨型低轨卫星互联网星座项目,计划在2019年至2024年间在太空搭建由约1.2万颗卫星组成的“星链”网络,其中1584颗将部署在地球上空550千米处的近地轨道,并从2020年开始工作。该卫星仍在工作。
2D轨道图
3D轨道图
轨道高度分析图
轨道倾角分析图
轨道综合分析图
查看轨道综合分析图
与全量物体交会距离演化趋势
与全量物体交会风险概率演化趋势